TimeEST,TemperatureF,Dew PointF,Humidity,Sea Level PressureIn,VisibilityMPH,Wind Direction,Wind SpeedMPH,Gust SpeedMPH,PrecipitationIn,Events,Conditions,WindDirDegrees,DateUTC
12:56 AM,24.1,21.0,88,30.43,6.0,Calm,Calm,-,N/A,,Mostly Cloudy,0,2012-12-13 05:56:00
1:56 AM,24.1,21.9,91,30.43,7.0,Calm,Calm,-,N/A,,Mostly Cloudy,0,2012-12-13 06:56:00
2:56 AM,21.9,19.9,92,30.43,6.0,East,3.5,-,N/A,,Clear,100,2012-12-13 07:56:00
3:56 AM,23.0,21.0,92,30.43,7.0,Calm,Calm,-,N/A,,Clear,0,2012-12-13 08:56:00
4:56 AM,21.9,19.9,92,30.44,8.0,Calm,Calm,-,N/A,,Scattered Clouds,0,2012-12-13 09:56:00
5:56 AM,24.1,21.9,91,30.45,8.0,East,3.5,-,N/A,,Mostly Cloudy,90,2012-12-13 10:56:00
6:56 AM,25.0,21.9,88,30.45,9.0,ENE,3.5,-,N/A,,Mostly Cloudy,60,2012-12-13 11:56:00
7:56 AM,27.0,24.1,89,30.44,10.0,Calm,Calm,-,N/A,,Clear,0,2012-12-13 12:56:00
8:56 AM,33.8,28.4,81,30.42,10.0,Calm,Calm,-,N/A,,Clear,0,2012-12-13 13:56:00
9:56 AM,36.0,30.0,79,30.43,10.0,Calm,Calm,-,N/A,,Overcast,0,2012-12-13 14:56:00
10:22 AM,37.4,32.0,81,30.41,10.0,South,5.8,-,N/A,,Mostly Cloudy,170,2012-12-13 15:22:00
10:35 AM,37.4,32.0,81,30.40,10.0,Variable,5.8,-,N/A,,Scattered Clouds,0,2012-12-13 15:35:00
10:56 AM,39.0,32.0,76,30.41,10.0,SSW,6.9,-,N/A,,Partly Cloudy,200,2012-12-13 15:56:00
11:56 AM,43.0,34.0,71,30.39,10.0,SW,9.2,17.3,N/A,,Clear,220,2012-12-13 16:56:00
12:56 PM,42.1,32.0,67,30.37,10.0,SW,12.7,19.6,N/A,,Partly Cloudy,230,2012-12-13 17:56:00
1:56 PM,43.0,30.9,62,30.35,10.0,SSW,13.8,17.3,N/A,,Partly Cloudy,210,2012-12-13 18:56:00
2:56 PM,43.0,30.9,62,30.35,10.0,SW,8.1,17.3,N/A,,Clear,220,2012-12-13 19:56:00
3:56 PM,41.0,28.9,62,30.34,10.0,SW,6.9,-,N/A,,Clear,220,2012-12-13 20:56:00
4:56 PM,37.0,27.0,67,30.31,10.0,SSE,3.5,-,N/A,,Clear,160,2012-12-13 21:56:00
7:56 PM,37.0,26.1,65,30.28,10.0,South,3.5,-,N/A,,Clear,180,2012-12-14 00:56:00
8:56 PM,37.0,26.1,65,30.26,10.0,South,8.1,-,N/A,,Clear,180,2012-12-14 01:56:00
9:56 PM,37.9,27.0,65,30.24,10.0,South,6.9,-,N/A,,Clear,170,2012-12-14 02:56:00
10:56 PM,39.0,24.1,55,30.21,10.0,South,11.5,17.3,N/A,,Clear,190,2012-12-14 03:56:00
11:56 PM,39.0,24.1,55,30.21,10.0,SSW,9.2,-,N/A,,Clear,200,2012-12-14 04:56:00